This is the latest recevied weather packets stored in our database for station/object N4ZIQ. If no packets are shown the sender has not sent any weather packets the latest 10 day(s).
| Time | Temp. | Humidity | Pressure | Rain* | Wind** | Luminosity | Snow |
|---|---|---|---|---|---|---|---|
| 1777940747 | 20.56° C | 75% | 1015.9 hPa | 0 mm | - | 0 W/m² | - |
| 1777940447 | 21.11° C | 75% | 1015.8 hPa | 0 mm | - | 0 W/m² | - |
| 1777940155 | 21.11° C | 74% | 1015.9 hPa | 0 mm | - | 0 W/m² | - |
| 1777939846 | 21.11° C | 74% | 1016 hPa | 0 mm | - | 0 W/m² | - |
| 1777939548 | 21.11° C | 74% | 1016 hPa | 0 mm | - | 0 W/m² | - |
| 1777939271 | 21.67° C | 72% | 1015.9 hPa | 0 mm | - | 0 W/m² | - |
| 1777938948 | 21.67° C | 72% | 1015.8 hPa | 0 mm | - | 7 W/m² | - |
| 1777938648 | 21.67° C | 71% | 1015.7 hPa | 0 mm | - | 11 W/m² | - |
| 1777938355 | 21.67° C | 70% | 1015.6 hPa | 0 mm | - | 14 W/m² | - |
| 1777938048 | 22.22° C | 69% | 1015.6 hPa | 0 mm | - | 18 W/m² | - |
| 1777937748 | 22.22° C | 68% | 1015.6 hPa | 0 mm | - | 21 W/m² | - |
| 1777937468 | 22.78° C | 68% | 1015.6 hPa | 0 mm | - | 25 W/m² | - |
| 1777937146 | 22.78° C | 67% | 1015.5 hPa | 0 mm | - | 42 W/m² | - |
| 1777936847 | 22.78° C | 67% | 1015.5 hPa | 0 mm | - | 54 W/m² | - |
| 1777936585 | 23.33° C | 66% | 1015.5 hPa | 0 mm | - | 69 W/m² | - |
| 1777936249 | 23.33° C | 66% | 1015.5 hPa | 0 mm | - | 84 W/m² | - |
| 1777935947 | 23.33° C | 65% | 1015.5 hPa | 0 mm | - | 98 W/m² | - |
| 1777935653 | 23.33° C | 65% | 1015.5 hPa | 0 mm | - | 116 W/m² | - |
| 1777935347 | 23.89° C | 65% | 1015.5 hPa | 0 mm | - | 135 W/m² | - |
| 1777935049 | 23.89° C | 64% | 1015.4 hPa | 0 mm | - | 153 W/m² | - |
| 1777934755 | 23.89° C | 65% | 1015.4 hPa | 0 mm | - | 172 W/m² | - |
| 1777934448 | 23.89° C | 65% | 1015.4 hPa | 0 mm | - | 192 W/m² | - |
| 1777934147 | 23.89° C | 64% | 1015.2 hPa | 0 mm | - | 209 W/m² | - |
| 1777933854 | 23.89° C | 64% | 1015.3 hPa | 0 mm | - | 223 W/m² | - |
| 1777933548 | 23.89° C | 65% | 1015.3 hPa | 0 mm | - | 241 W/m² | - |
* Rain latest hour (hover to see other rain measurements)
** Current wind speed in m/s (hover to see current wind gust speed)